Regional Weather Roundup
Issued by NWS

Home | Current Version | Previous Version | Graphics & Text | Print | Product List | Glossary On
Versions: 1 2 3 4 5 6 7 8 9 10 11 12 13 14 15 16 17 18 19 20 21 22 23 24 25 26 27 28 29 30 31 32 33 34 35 36 37 38 39 40 41 42 43 44 45 46 47 48 49 50
340
ASUS43 KOAX 190110
RWRNE

WEATHER ROUNDUP FOR NEBRASKA
NATIONAL WEATHER SERVICE OMAHA NE
700 PM CST SAT FEB 18 2017

NOTES: SATELLITE DATA IS BEING USED TO AUGMENT CLOUD COVER ABOVE
       12000 FEET.
       "FAIR" INDICATES FEW OR NO CLOUDS BELOW 12,000 FEET WITH NO
       SIGNIFICANT WEATHER AND/OR OBSTRUCTIONS TO VISIBILITY.

  * THESE STATIONS DO NOT REPORT WEATHER SUCH AS RAIN...SNOW OR FOG.

NEZ001>004-019>022-054>056-190200-
NEBRASKA PANHANDLE

CITY           SKY/WX    TMP DP  RH WIND       PRES   REMARKS
SCOTTSBLUFF    CLOUDY    50  27  40 E8        29.63F
ALLIANCE       CLOUDY    44  27  51 SE8       29.66S
CHADRON        CLEAR     51  30  44 S13       29.62R
KIMBALL        CLOUDY    53  27  37 SE12      29.67S
SIDNEY         CLOUDY    50  26  39 SE13      29.67S
$$

NEZ057>060-069>072-079>082-190200-
SOUTHWEST NEBRASKA

CITY           SKY/WX    TMP DP  RH WIND       PRES   REMARKS
NORTH PLATTE   CLEAR     46  30  53 SE8       29.72F
IMPERIAL       CLOUDY    51  31  46 SE13      29.71F
LEXINGTON      PTCLDY    55  34  45 SE7       29.75S
MCCOOK         CLOUDY    52  35  52 E8        29.73S
OGALLALA       CLOUDY    53  32  44 E6        29.70F
$$

NEZ005>010-023>029-035>040-094-190200-
NORTH CENTRAL NEBRASKA

CITY           SKY/WX    TMP DP  RH WIND       PRES   REMARKS
VALENTINE      CLEAR     51  29  42 S9        29.70R
AINSWORTH      CLOUDY    50  30  45 SE12      29.72S
BROKEN BOW     CLOUDY    51  33  50 SE8       29.75S
O`NEILL        PTCLDY    51  34  51 SE7       29.77R
ORD            MOCLDY    48  31  51 E3        29.76R
THEDFORD       PTCLDY    52  33  47 SE7       29.73S
$$

NEZ041-046>049-061>064-073>077-083>087-190200-
SOUTH CENTRAL NEBRASKA

CITY           SKY/WX    TMP DP  RH WIND       PRES   REMARKS
GRAND ISLAND   PTCLDY    55  33  43 E5        29.78R
AURORA         PTCLDY    49  32  51 E7        29.77S
HASTINGS       PTCLDY    58  35  42 SE3       29.77R
HEBRON         PTCLDY    51  36  56 CALM      29.76S
HOLDREGE       PTCLDY    51  33  50 S5        29.76R
KEARNEY *      CLOUDY    52  32  46 SE5       29.77R
YORK           PTCLDY    48  32  53 E7        29.78R
$$

NEZ011>018-030>034-042>045-190200-
NORTHEAST NEBRASKA

CITY           SKY/WX    TMP DP  RH WIND       PRES   REMARKS
NORFOLK        CLOUDY    49  34  56 SE3       29.79R
ALBION         MOCLDY    51  36  57 E3        29.79R
BLAIR          CLEAR     55  35  45 E6        29.80R
FREMONT        CLOUDY    51  33  50 CALM      29.80R
TEKAMAH        CLOUDY    50  42  74 CALM      29.80R
WAYNE          CLOUDY    42  36  79 CALM      29.80R
$$

NEZ050>053-065>068-078-088>093-190200-
SOUTHEAST NEBRASKA

CITY           SKY/WX    TMP DP  RH WIND       PRES   REMARKS
LINCOLN        PTCLDY    57  30  35 E5        29.79S
OMAHA EPPLEY   MOCLDY    54  32  43 E6        29.80R
BEATRICE       CLOUDY    59  34  39 E3        29.77S HAZE
FALLS CITY     CLEAR     60  35  39 SE3       29.79R
NEBRASKA CITY  CLEAR     61  24  24 SE6       29.79S
PLATTSMOUTH    CLEAR     59  24  26 SE3       29.79S
$$

NEZ044-045-051>053-067-190200-
OMAHA AREA

CITY           SKY/WX    TMP DP  RH WIND       PRES   REMARKS
OMAHA EPPLEY   MOCLDY    54  32  43 E6        29.80R
BLAIR          CLEAR     55  35  45 E6        29.80R
FREMONT        CLOUDY    51  33  50 CALM      29.80R
MILLARD        CLEAR     55  34  45 CALM      29.79R
OFFUTT AFB     CLEAR     44  33  65 NE3       29.79R
PLATTSMOUTH    CLEAR     59  24  26 SE3       29.79S
WAHOO          FAIR      49  33  54 E6        29.80R
$$




USA.gov is the U.S. government's official web portal to all federal, state and local government web resources and services.